Lid_Strength_Index
14 14 14 14 14 14 14 14 14 15 15 15 15 16 16 17 17 17 18 18 19 19 19 19 20 20 20 20 19 20 19 19
13 14 14 15 15 14 14 15 15 15 15 15 16 16 17 18 18 18 18 18 18 19 19 20 20 20 20 20 20 20 20 20
12 13 14 14 14 14 14 14 14 15 15 16 16 17 17 17 18 18 18 19 19 19 19 20 20 20 20 21 20 21 21 21
11 12 11 12 13 13 14 14 14 15 16 16 17 17 17 17 18 18 18 19 19 19 20 20 20 20 20 21 21 21 21 21
10 11 11 12 12 13 14 14 15 15 16 17 17 16 16 17 18 18 18 19 19 19 20 21 21 21 21 21 22 22 22 22
10 10 10 12 12 13 13 14 14 15 16 16 16 16 16 18 18 18 18 19 19 20 21 21 21 21 21 21 22 22 21 21
10 11 12 12 11 13 13 14 15 15 16 16 17 17 17 18 18 19 19 20 20 20 21 22 21 18 17 20 21 20 20 20
11 11 11 11 12 13 13 14 16 15 16 17 17 18 19 18 19 19 20 20 21 21 21 21 21 16 15 16 19 19 19 19
10 10 10 10 11 13 15 16 16 16 17 17 18 19 19 19 19 19 20 21 21 21 21 21 21 15 14 15 17 18 18 18
10 10 11 12 12 13 17 17 17 17 17 17 18 19 20 20 19 19 20 21 21 20 21 21 21 14 14 14 18 19 19 18
10 10 11 11 14 16 17 18 17 16 16 18 18 18 19 19 19 20 20 20 21 22 21 21 22 14 13 15 18 20 19 19
11 11 11 12 14 14 17 18 18 18 20 20 19 19 19 19 19 20 20 21 21 22 22 22 22 18 15 14 19 20 21 20
13 12 11 11 14 14 15 17 20 19 21 21 20 20 20 21 21 21 21 22 23 24 24 22 22 21 16 15 16 17 21 20
13 12 12 10 13 15 13 19 21 20 19 20 22 21 21 21 22 23 22 22 24 24 23 23 22 22 17 15 15 16 19 19
15 15 14 12 12 13 13 17 19 19 20 21 21 22 21 21 22 22 22 22 23 23 23 23 23 22 19 18 17 16 17 18
18 18 18 16 14 12 12 17 18 19 20 21 21 22 22 21 22 21 21 20 22 21 21 22 23 21 19 19 21 21 20 28
20 20 19 19 18 17 14 17 17 19 21 21 22 22 22 22 22 18 19 18 17 17 19 19 18 18 17 16 16 16 17 30
21 22 22 22 22 21 18 15 17 18 19 21 22 23 23 23 24 24 19 17 16 17 17 17 17 15 15 14 14 15 21 30
22 23 24 24 24 22 20 18 17 17 17 20 21 22 23 23 23 22 22 21 20 17 17 16 15 14 14 14 16 23 26 31
24 24 24 25 24 21 20 18 16 18 18 20 21 21 22 22 22 22 21 21 21 20 18 16 15 15 15 17 25 27 28 31